SCP
0 0 0 0 0 0 0 0 0 0 0 0 0 0 0 0 0 0 0 0 0 0 0 0 0 0 0 0 0 0 0 0 0 0 0 0 0 0
0 0 0 0 0 0 0 0 0 0 0 0 0 0 0 0 0 0 0 0 0 0 0 0 0 0 0 0 0 0 0 0 0 0 0 0 0 0
0 0 0 0 0 0 0 0 0 1 1 0 0 0 0 0 0 0 0 0 0 0 0 0 0 0 0 0 0 0 0 0 0 0 0 0 0 0
-0 -0 0 0 0 0 0 1 0 1 0 0 0 0 0 0 0 0 0 0 0 0 0 0 0 0 0 0 0 0 0 0 0 0 0 0 0 0
0 -0 0 0 0 0 0 0 0 0 0 0 0 0 0 0 0 0 0 0 0 0 0 0 0 0 0 0 0 0 0 -0 -0 0 0 0 -0 -0
0 0 0 0 0 0 0 0 0 0 0 0 0 0 0 0 0 0 0 0 0 0 0 0 0 0 0 0 0 0 0 -0 -0 -0 -0 0 0 -0
0 0 0 0 0 0 0 0 0 0 0 0 0 0 0 0 0 0 0 0 0 0 0 0 0 0 0 0 0 0 0 0 -0 -0 0 0 -0 -0
0 0 0 0 0 0 0 0 0 0 0 0 0 0 0 0 0 0 0 0 0 0 0 0 0 0 0 -0 0 -0 0 0 -0 -0 0 0 -0 0
0 0 0 0 0 0 0 0 0 0 0 0 0 0 0 0 0 0 0 0 0 0 0 0 0 0 -0 -0 -0 -0 0 -0 0 0 -0 -0 -0 -0
0 0 0 0 0 0 0 0 0 0 0 0 0 0 0 0 0 0 0 0 0 0 0 0 -0 0 0 -0 -0 0 -0 0 0 -0 -0 0 -0 -0
0 0 0 0 0 0 0 0 0 0 0 0 0 0 0 -0 -0 -0 0 0 0 -0 0 -0 -0 -0 -0 0 0 -0 -0 0 -0 -0 -0 -0 -0 0
0 0 0 0 -0 0 0 0 0 0 0 0 0 0 -0 -0 -0 -0 -0 -0 -0 0 0 0 0 0 0 0 0 0 0 0 0 -0 -0 -0 -0 0
0 0 0 0 0 0 0 0 0 0 0 0 0 0 0 0 -0 -0 -0 0 0 -0 0 0 0 0 0 0 0 0 0 0 0 0 -0 -0 -0 -0
0 0 0 0 0 -0 0 0 0 0 0 0 0 0 0 -0 -0 -0 0 0 0 0 0 0 0 0 0 0 0 0 0 0 0 0 0 0 0 0
0 0 0 0 0 0 0 0 0 0 0 0 0 0 0 -0 -0 -0 0 0 0 0 0 0 0 0 0 0 0 0 0 0 0 0 0 0 0 0
0 0 0 0 0 0 0 0 0 0 0 0 0 0 0 -0 -0 -0 0 0 0 0 0 0 0 0 0 0 0 0 0 0 0 0 0 0 0 0
0 0 0 0 0 0 0 0 0 0 0 0 0 0 0 -0 0 0 0 0 0 0 0 0 0 0 0 0 0 0 0 0 0 0 0 0 0 0
0 0 0 0 0 0 0 0 0 0 0 0 0 0 0 0 0 0 0 0 0 0 0 0 -0 0 0 0 -0 -0 -0 -0 -0 0 -0 -0 -0 0
0 0 0 0 0 0 0 0 0 0 0 0 0 0 0 0 0 0 0 0 0 0 0 0 0 0 0 0 0 -0 -0 -0 -0 -0 -0 -0 -0 -0
0 0 0 0 0 0 0 0 0 0 0 0 0 0 0 0 0 0 0 0 0 0 0 0 0 0 0 0 0 0 0 0 0 0 0 0 0 0
0 0 0 0 0 0 0 0 0 0 0 0 0 0 0 0 0 0 0 0 0 0 0 0 0 0 0 0 0 0 0 0 0 0 0 0 0 0
0 0 0 0 0 0 0 0 0 0 0 0 0 0 0 0 0 0 0 0 0 0 0 0 0 0 0 0 0 0 0 0 0 0 0 0 0 0
0 0 0 0 0 0 0 0 0 0 0 0 0 0 0 0 0 0 0 -0 -0 -0 0 0 0 0 -0 -0 0 0 0 0 0 0 0 0 0 0
Wind_Speed_500mb
65 66 62 57 59 52 43 44 43 29 40 39 31 32 34 39 37 25 18 15 13 9 6 9 14 19 21 23 24 25 24 28 31 33 36 37 33 27
71 77 68 61 56 47 43 44 50 48 31 37 43 39 42 41 32 28 23 21 14 13 15 17 21 23 25 25 23 24 23 27 30 34 32 30 30 26
79 81 72 61 50 40 42 43 54 48 44 36 40 39 49 47 39 36 28 17 13 19 19 20 23 24 24 25 24 23 22 25 28 25 22 26 25 24
83 77 67 53 47 42 39 42 51 46 48 54 42 50 54 49 44 39 31 23 19 20 18 23 24 27 26 31 32 33 29 25 25 20 15 13 18 26
77 67 54 43 45 44 39 42 47 48 46 51 53 58 61 54 51 43 33 25 22 19 19 23 29 30 35 37 34 35 36 34 32 26 23 24 23 24
65 60 53 43 46 39 40 43 44 50 42 49 60 68 66 63 57 50 41 28 23 19 22 21 28 36 39 39 47 48 43 40 37 31 32 25 26 26
55 53 49 46 48 46 44 43 46 60 51 57 69 75 74 73 67 56 42 33 26 21 16 18 24 31 38 46 51 54 51 45 38 32 29 29 30 29
49 48 49 49 49 47 46 47 52 60 60 67 70 68 77 73 70 59 48 43 22 18 17 17 22 29 39 46 49 52 49 45 41 32 32 35 34 36
51 43 42 44 41 42 40 47 56 51 41 43 62 60 67 71 72 66 49 30 22 24 21 22 19 25 32 39 41 51 56 53 44 39 38 39 39 38
47 45 43 39 37 39 39 41 39 38 45 38 37 34 51 66 70 55 47 33 31 22 24 18 23 23 26 30 34 45 54 54 49 40 37 35 36 38
46 48 49 44 41 37 41 34 39 42 43 39 40 32 52 54 65 56 43 38 31 22 17 15 17 28 30 26 31 36 45 52 49 44 41 42 44 46
47 47 43 43 55 54 39 31 51 66 52 52 48 46 44 67 55 46 39 34 28 21 15 9 7 7 15 27 27 28 35 43 51 53 47 44 39 41
38 35 39 45 45 71 40 29 44 69 72 60 58 74 75 64 53 38 30 26 17 18 17 11 18 21 16 16 36 36 32 35 43 50 53 62 59 51
29 26 29 34 53 54 54 54 65 71 72 84 93 87 71 54 46 40 35 27 25 29 23 21 21 16 20 19 19 36 39 43 47 51 58 64 66 62
21 24 29 33 51 59 33 83 88 77 99 104 93 75 57 56 55 43 34 24 34 30 25 22 14 23 20 21 23 24 24 39 50 58 64 73 74 76
36 40 39 41 39 67 85 83 86 98 110 105 82 71 69 59 47 41 38 37 39 34 26 32 37 42 40 36 34 34 33 25 33 44 53 62 71 77
36 36 48 61 72 73 77 87 101 109 104 93 81 69 58 50 46 41 39 39 46 45 47 46 47 50 50 41 43 37 36 37 38 38 41 51 64 71
33 67 84 82 80 79 82 99 94 96 86 73 65 61 56 52 48 45 43 47 50 46 47 44 46 51 54 57 45 39 38 39 40 45 48 58 65 66
69 77 78 75 76 81 96 91 92 78 76 62 61 57 55 55 53 50 50 50 47 43 40 37 36 40 50 53 41 47 40 40 43 50 51 55 62 74
61 69 70 73 84 93 88 90 83 68 59 63 57 55 57 55 53 51 48 48 47 45 42 39 37 36 42 46 46 51 43 35 38 42 44 49 57 59
62 64 73 81 85 81 78 71 64 59 64 59 55 56 51 51 49 46 46 48 49 47 45 46 51 52 45 44 49 53 61 57 45 28 29 38 45 45
62 69 72 73 65 71 70 62 64 67 62 54 55 52 48 47 46 45 45 46 46 48 52 49 37 37 37 39 41 39 37 49 54 58 60 54 39 39
63 66 68 70 68 66 57 54 56 54 52 56 54 49 47 48 46 43 43 45 51 51 45 41 36 35 37 37 37 35 31 29 29 38 52 55 56 55
Wind_Direction_500mb
305 302 300 284 274 269 264 259 253 255 250 240 227 223 220 219 221 209 192 153 122 97 52 41 26 7 345 341 340 324 311 306 308 309 312 314 315 305
300 302 295 286 275 268 260 260 252 250 249 246 230 214 206 206 202 180 166 145 126 88 72 37 20 6 358 351 345 338 321 307 310 307 316 337 336 334
300 299 288 280 272 262 259 255 249 247 238 236 233 207 198 198 182 170 164 151 110 88 60 35 21 17 10 4 0 346 334 329 325 329 334 322 328 338
296 292 281 272 267 262 257 254 248 243 234 236 209 194 197 194 181 173 161 145 112 86 59 37 29 23 14 15 16 10 355 358 354 341 325 337 337 342
287 281 269 263 264 259 248 252 243 237 242 231 194 190 189 187 174 169 160 142 111 86 66 49 38 30 29 35 25 22 23 21 16 21 12 2 355 5
276 270 263 256 254 249 244 243 243 235 237 212 187 183 185 179 178 173 160 145 121 92 66 52 51 48 51 46 40 32 28 18 19 22 23 15 14 7
268 264 258 252 250 243 234 239 234 231 216 193 183 181 180 180 182 177 164 146 131 103 85 63 59 59 53 45 38 33 32 30 25 28 27 25 23 16
262 255 253 249 247 240 235 230 236 223 205 192 187 185 186 187 186 173 167 152 141 130 99 78 73 62 50 43 38 38 35 33 31 35 30 33 34 30
258 254 256 251 241 231 224 217 231 224 238 231 195 193 188 192 183 176 166 142 145 134 111 86 73 58 51 45 35 34 33 33 37 40 49 44 40 36
253 247 249 250 232 215 217 205 209 202 209 198 188 192 201 189 182 168 150 147 139 129 117 94 78 64 59 49 46 42 40 38 38 36 37 39 45 47
247 248 249 243 220 214 193 201 203 195 186 190 175 176 191 182 163 155 149 146 141 135 115 111 107 75 59 54 57 49 46 43 41 42 46 56 51 52
244 246 243 224 199 186 195 199 211 195 191 186 178 171 160 155 160 151 145 144 141 136 152 126 126 114 54 49 59 55 54 51 51 52 56 63 59 54
242 222 218 209 206 190 205 242 203 178 165 158 147 139 143 149 157 150 141 136 136 141 155 122 97 101 100 80 63 62 60 58 58 56 59 58 55 54
217 209 187 165 171 192 210 225 203 152 150 143 140 142 141 144 149 150 148 144 142 147 130 103 105 104 103 98 73 62 65 67 65 64 65 64 59 57
187 171 165 166 186 205 188 161 149 157 146 141 142 136 139 144 150 149 148 139 140 130 109 115 112 110 112 101 87 74 68 66 66 63 61 59 58 58
127 145 152 160 153 140 145 143 151 149 143 140 136 138 139 140 137 140 138 141 133 114 110 109 110 106 96 87 83 73 70 71 53 61 59 60 59 57
115 132 139 142 143 145 146 147 146 143 140 139 135 133 129 130 127 132 129 120 113 110 105 108 105 104 99 86 83 73 68 68 66 60 60 60 59 56
136 140 137 141 143 143 141 138 141 140 138 134 130 128 130 128 127 126 121 118 113 109 105 99 95 94 90 90 84 72 69 69 68 66 66 66 63 56
140 140 135 140 139 136 139 139 140 139 138 131 130 128 129 129 125 122 119 117 114 111 108 107 104 99 91 80 70 87 72 72 72 71 68 67 66 62
139 140 136 134 138 137 140 142 141 136 134 134 130 131 131 129 125 121 121 119 116 113 109 107 104 100 97 93 83 73 81 77 74 73 66 63 59 58
141 137 137 138 139 140 140 136 135 137 139 136 132 134 133 131 128 126 124 121 118 115 111 111 109 102 96 94 88 80 77 72 78 85 69 67 68 64
140 139 139 141 134 137 137 137 140 142 141 135 136 136 133 135 134 131 126 122 121 120 118 112 102 105 102 96 91 88 82 75 72 74 75 77 82 71
143 142 142 140 139 141 137 134 135 137 138 141 139 137 136 136 134 130 129 128 126 123 120 114 110 106 102 100 93 88 85 80 70 63 67 68 69 72
Wind_Speed_850mb
65 66 62 57 59 52 43 44 43 29 40 39 31 32 34 39 37 25 18 15 13 9 6 9 14 19 21 23 24 25 24 28 31 33 36 37 33 27
71 77 68 61 56 47 43 44 50 48 31 37 43 39 42 41 32 28 23 21 14 13 15 17 21 23 25 25 23 24 23 27 30 34 32 30 30 26
79 81 72 61 50 40 42 43 54 48 44 36 40 39 49 47 39 36 28 17 13 19 19 20 23 24 24 25 24 23 22 25 28 25 22 26 25 24
83 77 67 53 47 42 39 42 51 46 48 54 42 50 54 49 44 39 31 23 19 20 18 23 24 27 26 31 32 33 29 25 25 20 15 13 18 26
77 67 54 43 45 44 39 42 47 48 46 51 53 58 61 54 51 43 33 25 22 19 19 23 29 30 35 37 34 35 36 34 32 26 23 24 23 24
65 60 53 43 46 39 40 43 44 50 42 49 60 68 66 63 57 50 41 28 23 19 22 21 28 36 39 39 47 48 43 40 37 31 32 25 26 26
55 53 49 46 48 46 44 43 46 60 51 57 69 75 74 73 67 56 42 33 26 21 16 18 24 31 38 46 51 54 51 45 38 32 29 29 30 29
49 48 49 49 49 47 46 47 52 60 60 67 70 68 77 73 70 59 48 43 22 18 17 17 22 29 39 46 49 52 49 45 41 32 32 35 34 36
51 43 42 44 41 42 40 47 56 51 41 43 62 60 67 71 72 66 49 30 22 24 21 22 19 25 32 39 41 51 56 53 44 39 38 39 39 38
47 45 43 39 37 39 39 41 39 38 45 38 37 34 51 66 70 55 47 33 31 22 24 18 23 23 26 30 34 45 54 54 49 40 37 35 36 38
46 48 49 44 41 37 41 34 39 42 43 39 40 32 52 54 65 56 43 38 31 22 17 15 17 28 30 26 31 36 45 52 49 44 41 42 44 46
47 47 43 43 55 54 39 31 51 66 52 52 48 46 44 67 55 46 39 34 28 21 15 9 7 7 15 27 27 28 35 43 51 53 47 44 39 41
38 35 39 45 45 71 40 29 44 69 72 60 58 74 75 64 53 38 30 26 17 18 17 11 18 21 16 16 36 36 32 35 43 50 53 62 59 51
29 26 29 34 53 54 54 54 65 71 72 84 93 87 71 54 46 40 35 27 25 29 23 21 21 16 20 19 19 36 39 43 47 51 58 64 66 62
21 24 29 33 51 59 33 83 88 77 99 104 93 75 57 56 55 43 34 24 34 30 25 22 14 23 20 21 23 24 24 39 50 58 64 73 74 76
36 40 39 41 39 67 85 83 86 98 110 105 82 71 69 59 47 41 38 37 39 34 26 32 37 42 40 36 34 34 33 25 33 44 53 62 71 77
36 36 48 61 72 73 77 87 101 109 104 93 81 69 58 50 46 41 39 39 46 45 47 46 47 50 50 41 43 37 36 37 38 38 41 51 64 71
33 67 84 82 80 79 82 99 94 96 86 73 65 61 56 52 48 45 43 47 50 46 47 44 46 51 54 57 45 39 38 39 40 45 48 58 65 66
69 77 78 75 76 81 96 91 92 78 76 62 61 57 55 55 53 50 50 50 47 43 40 37 36 40 50 53 41 47 40 40 43 50 51 55 62 74
61 69 70 73 84 93 88 90 83 68 59 63 57 55 57 55 53 51 48 48 47 45 42 39 37 36 42 46 46 51 43 35 38 42 44 49 57 59
62 64 73 81 85 81 78 71 64 59 64 59 55 56 51 51 49 46 46 48 49 47 45 46 51 52 45 44 49 53 61 57 45 28 29 38 45 45
62 69 72 73 65 71 70 62 64 67 62 54 55 52 48 47 46 45 45 46 46 48 52 49 37 37 37 39 41 39 37 49 54 58 60 54 39 39
63 66 68 70 68 66 57 54 56 54 52 56 54 49 47 48 46 43 43 45 51 51 45 41 36 35 37 37 37 35 31 29 29 38 52 55 56 55
Wind_Direction_850mb
305 302 300 284 274 269 264 259 253 255 250 240 227 223 220 219 221 209 192 153 122 97 52 41 26 7 345 341 340 324 311 306 308 309 312 314 315 305
300 302 295 286 275 268 260 260 252 250 249 246 230 214 206 206 202 180 166 145 126 88 72 37 20 6 358 351 345 338 321 307 310 307 316 337 336 334
300 299 288 280 272 262 259 255 249 247 238 236 233 207 198 198 182 170 164 151 110 88 60 35 21 17 10 4 0 346 334 329 325 329 334 322 328 338
296 292 281 272 267 262 257 254 248 243 234 236 209 194 197 194 181 173 161 145 112 86 59 37 29 23 14 15 16 10 355 358 354 341 325 337 337 342
287 281 269 263 264 259 248 252 243 237 242 231 194 190 189 187 174 169 160 142 111 86 66 49 38 30 29 35 25 22 23 21 16 21 12 2 355 5
276 270 263 256 254 249 244 243 243 235 237 212 187 183 185 179 178 173 160 145 121 92 66 52 51 48 51 46 40 32 28 18 19 22 23 15 14 7
268 264 258 252 250 243 234 239 234 231 216 193 183 181 180 180 182 177 164 146 131 103 85 63 59 59 53 45 38 33 32 30 25 28 27 25 23 16
262 255 253 249 247 240 235 230 236 223 205 192 187 185 186 187 186 173 167 152 141 130 99 78 73 62 50 43 38 38 35 33 31 35 30 33 34 30
258 254 256 251 241 231 224 217 231 224 238 231 195 193 188 192 183 176 166 142 145 134 111 86 73 58 51 45 35 34 33 33 37 40 49 44 40 36
253 247 249 250 232 215 217 205 209 202 209 198 188 192 201 189 182 168 150 147 139 129 117 94 78 64 59 49 46 42 40 38 38 36 37 39 45 47
247 248 249 243 220 214 193 201 203 195 186 190 175 176 191 182 163 155 149 146 141 135 115 111 107 75 59 54 57 49 46 43 41 42 46 56 51 52
244 246 243 224 199 186 195 199 211 195 191 186 178 171 160 155 160 151 145 144 141 136 152 126 126 114 54 49 59 55 54 51 51 52 56 63 59 54
242 222 218 209 206 190 205 242 203 178 165 158 147 139 143 149 157 150 141 136 136 141 155 122 97 101 100 80 63 62 60 58 58 56 59 58 55 54
217 209 187 165 171 192 210 225 203 152 150 143 140 142 141 144 149 150 148 144 142 147 130 103 105 104 103 98 73 62 65 67 65 64 65 64 59 57
187 171 165 166 186 205 188 161 149 157 146 141 142 136 139 144 150 149 148 139 140 130 109 115 112 110 112 101 87 74 68 66 66 63 61 59 58 58
127 145 152 160 153 140 145 143 151 149 143 140 136 138 139 140 137 140 138 141 133 114 110 109 110 106 96 87 83 73 70 71 53 61 59 60 59 57
115 132 139 142 143 145 146 147 146 143 140 139 135 133 129 130 127 132 129 120 113 110 105 108 105 104 99 86 83 73 68 68 66 60 60 60 59 56
136 140 137 141 143 143 141 138 141 140 138 134 130 128 130 128 127 126 121 118 113 109 105 99 95 94 90 90 84 72 69 69 68 66 66 66 63 56
140 140 135 140 139 136 139 139 140 139 138 131 130 128 129 129 125 122 119 117 114 111 108 107 104 99 91 80 70 87 72 72 72 71 68 67 66 62
139 140 136 134 138 137 140 142 141 136 134 134 130 131 131 129 125 121 121 119 116 113 109 107 104 100 97 93 83 73 81 77 74 73 66 63 59 58
141 137 137 138 139 140 140 136 135 137 139 136 132 134 133 131 128 126 124 121 118 115 111 111 109 102 96 94 88 80 77 72 78 85 69 67 68 64
140 139 139 141 134 137 137 137 140 142 141 135 136 136 133 135 134 131 126 122 121 120 118 112 102 105 102 96 91 88 82 75 72 74 75 77 82 71
143 142 142 140 139 141 137 134 135 137 138 141 139 137 136 136 134 130 129 128 126 123 120 114 110 106 102 100 93 88 85 80 70 63 67 68 69 72